Time,TemperatureF,DewpointF,PressureIn,WindDirection,WindDirectionDegrees,WindSpeedMPH,WindSpeedGustMPH,Humidity,HourlyPrecipIn,Conditions,Clouds,dailyrainin,SolarRadiationWatts/m^2,SoftwareType,DateUTC
2013-11-26 00:00:00,37.1,35.8,30.13,North,0,0.0,0.0,95,0.00,,---,0.00,0.00,VWS V14.00,2013-11-26 06:00:00,
2013-11-26 00:08:00,37.1,35.8,30.14,North,0,0.0,0.0,95,0.00,,---,0.00,0.00,VWS V14.00,2013-11-26 06:08:00,
2013-11-26 00:16:00,37.2,35.9,30.14,North,0,0.0,0.0,95,0.00,,---,0.00,0.00,VWS V14.00,2013-11-26 06:16:00,
2013-11-26 00:20:00,37.3,36.0,30.14,North,0,0.0,0.0,95,0.00,,---,0.00,0.00,VWS V14.00,2013-11-26 06:20:00,
2013-11-26 00:28:00,37.3,36.0,30.13,North,0,0.0,0.0,95,0.00,,---,0.00,0.00,VWS V14.00,2013-11-26 06:28:00,
2013-11-26 00:36:00,37.3,36.0,30.13,North,0,0.0,0.0,95,0.00,,---,0.00,0.00,VWS V14.00,2013-11-26 06:36:00,
2013-11-26 00:44:00,37.3,36.0,30.10,North,0,0.0,0.0,95,0.00,,---,0.00,0.00,VWS V14.00,2013-11-26 06:44:00,
2013-11-26 00:52:00,37.4,36.1,30.10,North,0,0.0,0.0,95,0.00,,---,0.00,0.00,VWS V14.00,2013-11-26 06:52:00,
2013-11-26 01:00:00,37.4,36.1,30.11,North,0,0.0,0.0,95,0.00,,---,0.00,0.00,VWS V14.00,2013-11-26 07:00:00,
2013-11-26 01:08:00,37.4,36.1,30.09,North,0,0.0,0.0,95,0.00,,---,0.00,0.00,VWS V14.00,2013-11-26 07:08:00,
2013-11-26 01:16:00,37.5,36.2,30.09,North,0,0.0,0.0,95,0.00,,---,0.00,0.00,VWS V14.00,2013-11-26 07:16:00,
2013-11-26 01:23:00,37.5,36.2,30.08,North,0,0.0,0.0,95,0.00,,---,0.00,0.00,VWS V14.00,2013-11-26 07:23:00,
2013-11-26 01:28:00,37.5,36.2,30.08,North,0,0.0,0.0,95,0.00,,---,0.00,0.00,VWS V14.00,2013-11-26 07:28:00,
2013-11-26 01:37:00,37.5,36.2,30.08,North,0,0.0,0.0,95,0.00,,---,0.00,0.00,VWS V14.00,2013-11-26 07:37:00,
2013-11-26 01:45:00,37.5,36.2,30.11,North,0,0.0,0.0,95,0.00,,---,0.00,0.00,VWS V14.00,2013-11-26 07:45:00,
2013-11-26 01:53:00,37.5,36.2,30.13,North,0,0.0,0.0,95,0.00,,---,0.00,0.00,VWS V14.00,2013-11-26 07:53:00,
2013-11-26 02:01:00,37.5,36.2,30.13,North,0,0.0,0.0,95,0.00,,---,0.00,0.00,VWS V14.00,2013-11-26 08:01:00,
2013-11-26 02:09:00,37.6,36.3,30.13,North,0,0.0,0.0,95,0.00,,---,0.00,0.00,VWS V14.00,2013-11-26 08:09:00,
2013-11-26 02:17:00,37.6,36.3,30.13,North,0,0.0,0.0,95,0.00,,---,0.00,0.00,VWS V14.00,2013-11-26 08:17:00,
2013-11-26 02:23:00,37.6,36.3,30.12,North,0,0.0,0.0,95,0.00,,---,0.00,0.00,VWS V14.00,2013-11-26 08:23:00,
2013-11-26 02:29:00,37.7,36.4,30.12,North,0,0.0,0.0,95,0.00,,---,0.00,0.00,VWS V14.00,2013-11-26 08:29:00,
2013-11-26 02:37:00,37.7,36.4,30.12,North,0,0.0,0.0,95,0.00,,---,0.00,0.00,VWS V14.00,2013-11-26 08:37:00,
2013-11-26 02:45:00,37.8,36.5,30.12,North,0,0.0,0.0,95,0.00,,---,0.00,0.00,VWS V14.00,2013-11-26 08:45:00,
2013-11-26 02:53:00,37.8,36.5,30.10,North,0,0.0,0.0,95,0.00,,---,0.00,0.00,VWS V14.00,2013-11-26 08:53:00,
2013-11-26 03:01:00,37.8,36.5,30.10,North,0,0.0,0.0,95,0.00,,---,0.00,0.00,VWS V14.00,2013-11-26 09:01:00,
2013-11-26 03:09:00,37.7,36.4,30.09,North,0,0.0,0.0,95,0.00,,---,0.00,0.00,VWS V14.00,2013-11-26 09:09:00,
2013-11-26 03:17:00,37.8,36.5,30.09,North,0,0.0,0.0,95,0.00,,---,0.00,0.00,VWS V14.00,2013-11-26 09:17:00,
2013-11-26 03:23:00,37.7,36.4,30.08,North,0,0.0,0.0,95,0.00,,---,0.00,0.00,VWS V14.00,2013-11-26 09:23:00,
2013-11-26 03:29:00,37.7,36.4,30.08,North,0,0.0,0.0,95,0.00,,---,0.00,0.00,VWS V14.00,2013-11-26 09:29:00,
2013-11-26 03:38:00,37.7,36.4,30.10,North,0,0.0,0.0,95,0.00,,---,0.00,0.00,VWS V14.00,2013-11-26 09:38:00,
2013-11-26 03:46:00,37.7,36.4,30.10,North,0,0.0,0.0,95,0.00,,---,0.00,0.00,VWS V14.00,2013-11-26 09:46:00,
2013-11-26 03:54:00,37.7,36.4,30.11,North,0,0.0,0.0,95,0.00,,---,0.00,0.00,VWS V14.00,2013-11-26 09:54:00,
2013-11-26 04:02:00,37.7,36.4,30.11,North,0,0.0,0.0,95,0.00,,---,0.00,0.00,VWS V14.00,2013-11-26 10:02:00,
2013-11-26 04:10:00,37.7,36.4,30.11,North,0,0.0,0.0,95,0.00,,---,0.00,0.00,VWS V14.00,2013-11-26 10:10:00,
2013-11-26 04:18:00,37.7,36.4,30.11,North,0,0.0,0.0,95,0.00,,---,0.00,0.00,VWS V14.00,2013-11-26 10:18:00,
2013-11-26 04:23:00,37.7,36.4,30.14,North,0,0.0,0.0,95,0.00,,---,0.00,0.00,VWS V14.00,2013-11-26 10:23:00,
2013-11-26 04:30:00,37.7,36.4,30.14,North,0,0.0,0.0,95,0.00,,---,0.00,0.00,VWS V14.00,2013-11-26 10:30:00,
2013-11-26 04:38:00,37.7,36.4,30.11,North,0,0.0,0.0,95,0.00,,---,0.00,0.00,VWS V14.00,2013-11-26 10:38:00,
2013-11-26 04:46:00,37.7,36.4,30.11,North,0,0.0,0.0,95,0.00,,---,0.00,0.00,VWS V14.00,2013-11-26 10:46:00,
2013-11-26 04:54:00,37.7,36.4,30.13,North,0,0.0,0.0,95,0.00,,---,0.00,0.00,VWS V14.00,2013-11-26 10:54:00,
2013-11-26 05:02:00,37.8,36.5,30.13,North,0,0.0,0.0,95,0.00,,---,0.00,0.00,VWS V14.00,2013-11-26 11:02:00,
2013-11-26 05:10:00,37.7,36.4,30.10,North,0,0.0,0.0,95,0.00,,---,0.00,0.00,VWS V14.00,2013-11-26 11:10:00,
2013-11-26 05:18:00,37.7,36.4,30.10,North,0,0.0,0.0,95,0.00,,---,0.00,0.00,VWS V14.00,2013-11-26 11:18:00,
2013-11-26 05:27:00,37.7,36.4,30.11,North,0,0.0,0.0,95,0.00,,---,0.00,0.00,VWS V14.00,2013-11-26 11:27:00,
2013-11-26 05:35:00,37.7,36.1,30.11,North,0,0.0,0.0,94,0.00,,---,0.00,0.00,VWS V14.00,2013-11-26 11:35:00,
2013-11-26 05:43:00,37.7,36.1,30.11,North,0,0.0,0.0,94,0.00,,---,0.00,0.00,VWS V14.00,2013-11-26 11:43:00,
2013-11-26 05:51:00,37.7,36.1,30.11,North,0,0.0,0.0,94,0.00,,---,0.00,0.00,VWS V14.00,2013-11-26 11:51:00,
2013-11-26 05:59:00,37.7,36.1,30.12,North,0,0.0,0.0,94,0.00,,---,0.00,0.00,VWS V14.00,2013-11-26 11:59:00,
2013-11-26 06:07:00,37.7,36.1,30.12,North,0,0.0,0.0,94,0.00,,---,0.00,0.00,VWS V14.00,2013-11-26 12:07:00,
2013-11-26 06:15:00,37.7,36.1,30.11,North,0,0.0,0.0,94,0.00,,---,0.00,0.00,VWS V14.00,2013-11-26 12:15:00,
2013-11-26 06:23:00,37.7,36.1,30.13,North,0,0.0,0.0,94,0.00,,---,0.00,0.00,VWS V14.00,2013-11-26 12:23:00,
2013-11-26 06:31:00,37.7,36.1,30.13,North,0,0.0,0.0,94,0.00,,---,0.00,0.00,VWS V14.00,2013-11-26 12:31:00,
2013-11-26 06:39:00,37.7,36.1,30.13,North,0,0.0,0.0,94,0.00,,---,0.00,0.00,VWS V14.00,2013-11-26 12:39:00,
2013-11-26 06:47:00,37.7,36.1,30.13,North,0,0.0,0.0,94,0.00,,---,0.00,0.00,VWS V14.00,2013-11-26 12:47:00,
2013-11-26 06:53:00,37.7,35.9,30.12,North,0,0.0,0.0,93,0.00,,---,0.00,0.00,VWS V14.00,2013-11-26 12:53:00,
2013-11-26 06:59:00,37.7,35.9,30.12,North,0,0.0,0.0,93,0.00,,---,0.00,0.00,VWS V14.00,2013-11-26 12:59:00,
2013-11-26 07:07:00,37.7,35.9,30.12,North,0,0.0,0.0,93,0.00,,---,0.00,0.00,VWS V14.00,2013-11-26 13:07:00,
2013-11-26 07:16:00,37.7,35.9,30.13,North,0,0.0,0.0,93,0.00,,---,0.00,0.00,VWS V14.00,2013-11-26 13:16:00,
2013-11-26 07:23:00,37.8,36.0,30.11,North,0,0.0,0.0,93,0.00,,---,0.00,5.00,VWS V14.00,2013-11-26 13:23:00,
2013-11-26 07:32:00,37.8,36.0,30.11,North,0,0.0,0.0,93,0.00,,---,0.00,7.00,VWS V14.00,2013-11-26 13:32:00,
2013-11-26 07:40:00,37.9,36.1,30.11,North,0,0.0,0.0,93,0.00,,---,0.00,9.00,VWS V14.00,2013-11-26 13:40:00,
2013-11-26 07:48:00,37.9,36.1,30.11,North,0,0.0,0.0,93,0.00,,---,0.00,9.00,VWS V14.00,2013-11-26 13:48:00,
2013-11-26 07:53:00,38.0,36.2,30.14,North,0,0.0,0.0,93,0.00,,---,0.00,0.00,VWS V14.00,2013-11-26 13:53:00,
2013-11-26 08:00:00,38.0,36.2,30.14,North,0,0.0,0.0,93,0.00,,---,0.00,5.00,VWS V14.00,2013-11-26 14:00:00,
2013-11-26 08:08:00,38.1,36.3,30.15,North,0,0.0,0.0,93,0.00,,---,0.00,7.00,VWS V14.00,2013-11-26 14:08:00,
2013-11-26 08:16:00,38.2,36.4,30.15,North,0,0.0,0.0,93,0.00,,---,0.00,12.00,VWS V14.00,2013-11-26 14:16:00,
2013-11-26 08:23:00,38.3,36.5,30.16,North,0,0.0,0.0,93,0.00,,---,0.00,11.00,VWS V14.00,2013-11-26 14:23:00,
2013-11-26 08:32:00,38.3,36.5,30.16,North,0,0.0,0.0,93,0.00,,---,0.00,9.00,VWS V14.00,2013-11-26 14:32:00,
2013-11-26 08:40:00,38.4,36.6,30.16,North,0,0.0,0.0,93,0.00,,---,0.00,14.00,VWS V14.00,2013-11-26 14:40:00,
2013-11-26 08:48:00,38.4,36.6,30.16,North,0,0.0,0.0,93,0.00,,---,0.00,12.00,VWS V14.00,2013-11-26 14:48:00,
2013-11-26 08:56:00,38.5,36.7,30.16,North,0,0.0,0.0,93,0.00,,---,0.00,30.00,VWS V14.00,2013-11-26 14:56:00,
2013-11-26 09:05:00,38.5,36.7,30.16,North,0,0.0,0.0,93,0.00,,---,0.00,33.00,VWS V14.00,2013-11-26 15:05:00,
2013-11-26 09:13:00,38.6,36.8,30.15,North,0,0.0,0.0,93,0.00,,---,0.00,46.00,VWS V14.00,2013-11-26 15:13:00,
2013-11-26 09:21:00,38.7,36.8,30.15,North,0,0.0,0.0,93,0.00,,---,0.00,28.00,VWS V14.00,2013-11-26 15:21:00,
2013-11-26 09:29:00,38.7,36.6,30.16,North,0,0.0,0.0,92,0.00,,---,0.00,33.00,VWS V14.00,2013-11-26 15:29:00,
2013-11-26 09:37:00,38.8,36.7,30.16,North,0,0.0,0.0,92,0.00,,---,0.00,28.00,VWS V14.00,2013-11-26 15:37:00,
2013-11-26 09:45:00,38.9,36.8,30.16,North,0,0.0,0.0,92,0.00,,---,0.00,33.00,VWS V14.00,2013-11-26 15:45:00,
2013-11-26 09:53:00,38.9,36.8,30.15,North,0,0.0,0.0,92,0.00,,---,0.00,70.00,VWS V14.00,2013-11-26 15:53:00,
2013-11-26 10:01:00,39.1,37.0,30.15,North,0,0.0,0.0,92,0.00,,---,0.00,70.00,VWS V14.00,2013-11-26 16:01:00,
2013-11-26 10:09:00,39.2,37.1,30.15,North,0,0.0,0.0,92,0.00,,---,0.00,67.00,VWS V14.00,2013-11-26 16:09:00,
2013-11-26 10:17:00,39.4,37.3,30.15,North,0,0.0,0.0,92,0.00,,---,0.00,86.00,VWS V14.00,2013-11-26 16:17:00,
2013-11-26 10:23:00,39.5,37.7,30.14,North,0,0.0,0.0,93,0.00,,---,0.00,105.00,VWS V14.00,2013-11-26 16:23:00,
2013-11-26 10:29:00,39.7,38.1,30.14,North,0,0.0,0.0,94,0.00,,---,0.00,169.00,VWS V14.00,2013-11-26 16:29:00,
2013-11-26 10:37:00,40.2,38.3,30.14,North,0,0.0,0.0,93,0.00,,---,0.00,183.00,VWS V14.00,2013-11-26 16:37:00,
2013-11-26 10:46:00,40.8,38.9,30.14,North,0,0.0,0.0,93,0.00,,---,0.00,183.00,VWS V14.00,2013-11-26 16:46:00,
2013-11-26 10:53:00,41.7,39.8,30.14,North,0,0.0,0.0,93,0.00,,---,0.00,234.00,VWS V14.00,2013-11-26 16:53:00,
2013-11-26 11:02:00,42.5,40.3,30.14,North,0,0.0,0.0,92,0.00,,---,0.00,279.00,VWS V14.00,2013-11-26 17:02:00,
2013-11-26 11:10:00,43.4,41.0,30.13,North,0,0.0,0.0,91,0.00,,---,0.00,172.00,VWS V14.00,2013-11-26 17:10:00,
2013-11-26 11:18:00,43.3,40.6,30.13,North,0,0.0,0.0,90,0.00,,---,0.00,220.00,VWS V14.00,2013-11-26 17:18:00,
2013-11-26 11:23:00,43.1,40.1,30.13,North,0,0.0,0.0,89,0.00,,---,0.00,132.00,VWS V14.00,2013-11-26 17:23:00,
2013-11-26 11:30:00,43.2,40.5,30.13,North,0,0.0,0.0,90,0.00,,---,0.00,181.00,VWS V14.00,2013-11-26 17:30:00,
2013-11-26 11:38:00,43.5,40.8,30.13,North,0,0.0,0.0,90,0.00,,---,0.00,234.00,VWS V14.00,2013-11-26 17:38:00,
2013-11-26 11:46:00,44.1,41.1,30.13,North,0,0.0,0.0,89,0.00,,---,0.00,125.00,VWS V14.00,2013-11-26 17:46:00,
2013-11-26 11:54:00,43.8,40.8,30.12,North,0,0.0,0.0,89,0.00,,---,0.00,104.00,VWS V14.00,2013-11-26 17:54:00,
2013-11-26 12:02:00,43.8,40.8,30.12,North,0,0.0,0.0,89,0.00,,---,0.00,123.00,VWS V14.00,2013-11-26 18:02:00,
2013-11-26 12:10:00,43.8,40.5,30.11,North,0,0.0,0.0,88,0.00,,---,0.00,109.00,VWS V14.00,2013-11-26 18:10:00,
2013-11-26 12:18:00,43.8,40.8,30.11,North,0,0.0,0.0,89,0.00,,---,0.00,88.00,VWS V14.00,2013-11-26 18:18:00,
2013-11-26 12:24:00,43.7,40.7,30.11,North,0,0.0,0.0,89,0.00,,---,0.00,118.00,VWS V14.00,2013-11-26 18:24:00,
2013-11-26 12:31:00,43.8,40.8,30.11,North,0,0.0,0.0,89,0.00,,---,0.00,123.00,VWS V14.00,2013-11-26 18:31:00,
2013-11-26 12:39:00,44.0,41.0,30.11,North,0,0.0,0.0,89,0.00,,---,0.00,79.00,VWS V14.00,2013-11-26 18:39:00,
2013-11-26 12:47:00,43.7,40.4,30.11,North,0,0.0,0.0,88,0.00,,---,0.00,65.00,VWS V14.00,2013-11-26 18:47:00,
2013-11-26 12:54:00,43.6,40.3,30.10,North,0,0.0,0.0,88,0.00,,---,0.00,72.00,VWS V14.00,2013-11-26 18:54:00,
2013-11-26 13:03:00,43.6,40.6,30.10,North,0,0.0,0.0,89,0.00,,---,0.00,58.00,VWS V14.00,2013-11-26 19:03:00,
2013-11-26 13:11:00,43.6,40.6,30.10,North,0,0.0,0.0,89,0.00,,---,0.00,76.00,VWS V14.00,2013-11-26 19:11:00,
2013-11-26 13:19:00,43.7,40.7,30.10,North,0,0.0,0.0,89,0.00,,---,0.00,93.00,VWS V14.00,2013-11-26 19:19:00,
2013-11-26 13:27:00,43.9,40.6,30.09,North,0,0.0,0.0,88,0.00,,---,0.00,130.00,VWS V14.00,2013-11-26 19:27:00,
2013-11-26 13:35:00,44.7,41.4,30.09,North,0,0.0,0.0,88,0.00,,---,0.00,186.00,VWS V14.00,2013-11-26 19:35:00,
2013-11-26 13:43:00,45.4,41.5,30.09,North,0,0.0,0.0,86,0.00,,---,0.00,167.00,VWS V14.00,2013-11-26 19:43:00,
2013-11-26 13:51:00,45.6,41.4,30.09,North,0,0.0,0.0,85,0.00,,---,0.00,148.00,VWS V14.00,2013-11-26 19:51:00,
2013-11-26 13:59:00,45.7,41.5,30.09,North,0,0.0,0.0,85,0.00,,---,0.00,195.00,VWS V14.00,2013-11-26 19:59:00,
2013-11-26 14:08:00,46.0,41.8,30.09,North,0,0.0,0.0,85,0.00,,---,0.00,142.00,VWS V14.00,2013-11-26 20:08:00,
2013-11-26 14:16:00,46.3,41.7,30.09,North,0,0.0,0.0,84,0.00,,---,0.00,158.00,VWS V14.00,2013-11-26 20:16:00,
2013-11-26 14:24:00,46.5,41.9,30.09,North,0,0.0,0.0,84,0.00,,---,0.00,153.00,VWS V14.00,2013-11-26 20:24:00,
2013-11-26 14:32:00,46.8,41.6,30.09,North,0,0.0,0.0,82,0.00,,---,0.00,148.00,VWS V14.00,2013-11-26 20:32:00,
2013-11-26 14:40:00,47.0,41.8,30.09,North,0,0.0,0.0,82,0.00,,---,0.00,134.00,VWS V14.00,2013-11-26 20:40:00,
2013-11-26 14:48:00,47.1,41.3,30.09,North,0,0.0,0.0,80,0.00,,---,0.00,130.00,VWS V14.00,2013-11-26 20:48:00,
2013-11-26 14:54:00,47.3,41.5,30.09,North,0,0.0,0.0,80,0.00,,---,0.00,127.00,VWS V14.00,2013-11-26 20:54:00,
2013-11-26 15:00:00,47.3,41.1,30.09,North,0,0.0,0.0,79,0.00,,---,0.00,114.00,VWS V14.00,2013-11-26 21:00:00,
2013-11-26 15:08:00,47.4,41.5,30.09,North,0,0.0,0.0,80,0.00,,---,0.00,105.00,VWS V14.00,2013-11-26 21:08:00,
2013-11-26 15:16:00,47.5,41.3,30.09,North,0,0.0,0.0,79,0.00,,---,0.00,98.00,VWS V14.00,2013-11-26 21:16:00,
2013-11-26 15:24:00,47.6,41.4,30.09,North,0,0.0,0.0,79,0.00,,---,0.00,90.00,VWS V14.00,2013-11-26 21:24:00,
2013-11-26 15:32:00,47.7,41.5,30.09,North,0,0.0,0.0,79,0.00,,---,0.00,84.00,VWS V14.00,2013-11-26 21:32:00,
2013-11-26 15:40:00,47.8,41.3,30.09,North,0,0.0,0.0,78,0.00,,---,0.00,74.00,VWS V14.00,2013-11-26 21:40:00,
2013-11-26 15:49:00,47.8,41.6,30.09,North,0,0.0,0.0,79,0.00,,---,0.00,67.00,VWS V14.00,2013-11-26 21:49:00,
2013-11-26 15:54:00,47.8,41.3,30.10,North,0,0.0,0.0,78,0.00,,---,0.00,56.00,VWS V14.00,2013-11-26 21:54:00,
2013-11-26 16:01:00,47.7,41.2,30.10,North,0,0.0,0.0,78,0.00,,---,0.00,33.00,VWS V14.00,2013-11-26 22:01:00,
2013-11-26 16:09:00,47.6,40.8,30.10,North,0,0.0,0.0,77,0.00,,---,0.00,23.00,VWS V14.00,2013-11-26 22:09:00,
2013-11-26 16:17:00,47.5,40.7,30.10,North,0,0.0,0.0,77,0.00,,---,0.00,18.00,VWS V14.00,2013-11-26 22:17:00,
2013-11-26 16:24:00,47.5,38.6,30.11,North,0,0.0,0.0,71,0.00,,---,0.00,49.00,VWS V14.00,2013-11-26 22:24:00,
2013-11-26 16:29:00,47.6,38.3,30.11,North,0,0.0,0.0,70,0.00,,---,0.00,18.00,VWS V14.00,2013-11-26 22:29:00,
2013-11-26 16:37:00,47.6,38.3,30.11,North,0,0.0,0.0,70,0.00,,---,0.00,12.00,VWS V14.00,2013-11-26 22:37:00,
2013-11-26 16:45:00,47.6,38.7,30.12,North,0,0.0,0.0,71,0.00,,---,0.00,11.00,VWS V14.00,2013-11-26 22:45:00,
2013-11-26 16:53:00,47.6,38.3,30.12,North,0,0.0,0.0,70,0.00,,---,0.00,9.00,VWS V14.00,2013-11-26 22:53:00,
2013-11-26 17:01:00,47.5,38.2,30.12,North,0,0.0,0.0,70,0.00,,---,0.00,5.00,VWS V14.00,2013-11-26 23:01:00,
2013-11-26 17:09:00,47.4,38.5,30.12,North,0,0.0,0.0,71,0.00,,---,0.00,0.00,VWS V14.00,2013-11-26 23:09:00,
2013-11-26 17:18:00,47.3,38.4,30.12,North,0,0.0,0.0,71,0.00,,---,0.00,0.00,VWS V14.00,2013-11-26 23:18:00,
2013-11-26 17:24:00,47.2,38.3,30.14,North,0,0.0,0.0,71,0.00,,---,0.00,0.00,VWS V14.00,2013-11-26 23:24:00,
2013-11-26 17:30:00,47.0,38.1,30.14,North,0,0.0,0.0,71,0.00,,---,0.00,0.00,VWS V14.00,2013-11-26 23:30:00,
2013-11-26 17:38:00,46.9,37.6,30.14,North,0,0.0,0.0,70,0.00,,---,0.00,0.00,VWS V14.00,2013-11-26 23:38:00,
2013-11-26 17:46:00,46.9,38.0,30.14,North,0,0.0,0.0,71,0.00,,---,0.00,0.00,VWS V14.00,2013-11-26 23:46:00,
2013-11-26 17:54:00,46.7,37.5,30.15,North,0,0.0,0.0,70,0.00,,---,0.00,0.00,VWS V14.00,2013-11-26 23:54:00,
2013-11-26 18:02:00,46.6,37.7,30.15,North,0,0.0,0.0,71,0.00,,---,0.00,0.00,VWS V14.00,2013-11-27 00:02:00,
2013-11-26 18:10:00,46.5,37.6,30.16,North,0,0.0,0.0,71,0.00,,---,0.00,0.00,VWS V14.00,2013-11-27 00:10:00,
2013-11-26 18:18:00,46.3,37.4,30.16,North,0,0.0,0.0,71,0.00,,---,0.00,0.00,VWS V14.00,2013-11-27 00:18:00,
2013-11-26 18:24:00,46.2,37.3,30.17,North,0,0.0,0.0,71,0.00,,---,0.00,0.00,VWS V14.00,2013-11-27 00:24:00,
2013-11-26 18:30:00,46.1,37.2,30.17,North,0,0.0,0.0,71,0.00,,---,0.00,0.00,VWS V14.00,2013-11-27 00:30:00,
2013-11-26 18:38:00,46.0,37.5,30.17,North,0,0.0,0.0,72,0.00,,---,0.00,0.00,VWS V14.00,2013-11-27 00:38:00,
2013-11-26 18:46:00,45.9,37.4,30.17,North,0,0.0,0.0,72,0.00,,---,0.00,0.00,VWS V14.00,2013-11-27 00:46:00,
2013-11-26 18:54:00,45.7,37.2,30.18,North,0,0.0,0.0,72,0.00,,---,0.00,0.00,VWS V14.00,2013-11-27 00:54:00,
2013-11-26 19:03:00,45.5,37.0,30.18,North,0,0.0,0.0,72,0.00,,---,0.00,0.00,VWS V14.00,2013-11-27 01:03:00,
2013-11-26 19:11:00,45.3,36.8,30.19,North,0,0.0,0.0,72,0.00,,---,0.00,0.00,VWS V14.00,2013-11-27 01:11:00,
2013-11-26 19:19:00,45.1,36.6,30.19,North,0,0.0,0.0,72,0.00,,---,0.00,0.00,VWS V14.00,2013-11-27 01:19:00,
2013-11-26 19:24:00,45.0,36.9,30.20,North,0,0.0,0.0,73,0.00,,---,0.00,0.00,VWS V14.00,2013-11-27 01:24:00,
2013-11-26 19:31:00,44.8,36.3,30.20,North,0,0.0,0.0,72,0.00,,---,0.00,0.00,VWS V14.00,2013-11-27 01:31:00,
2013-11-26 19:39:00,44.6,36.2,30.20,North,0,0.0,0.0,72,0.00,,---,0.00,0.00,VWS V14.00,2013-11-27 01:39:00,
2013-11-26 19:47:00,44.4,36.0,30.20,North,0,0.0,0.0,72,0.00,,---,0.00,0.00,VWS V14.00,2013-11-27 01:47:00,
2013-11-26 19:54:00,44.3,36.2,30.21,North,0,0.0,0.0,73,0.00,,---,0.00,0.00,VWS V14.00,2013-11-27 01:54:00,
2013-11-26 19:59:00,44.2,36.1,30.21,North,0,0.0,0.0,73,0.00,,---,0.00,0.00,VWS V14.00,2013-11-27 01:59:00,
2013-11-26 20:07:00,44.1,36.0,30.21,North,0,0.0,0.0,73,0.00,,---,0.00,0.00,VWS V14.00,2013-11-27 02:07:00,
2013-11-26 20:15:00,44.0,35.9,30.22,North,0,0.0,0.0,73,0.00,,---,0.00,0.00,VWS V14.00,2013-11-27 02:15:00,
2013-11-26 20:23:00,43.8,36.1,30.21,North,0,0.0,0.0,74,0.00,,---,0.00,0.00,VWS V14.00,2013-11-27 02:23:00,
2013-11-26 20:32:00,43.6,35.5,30.21,North,0,0.0,0.0,73,0.00,,---,0.00,0.00,VWS V14.00,2013-11-27 02:32:00,
2013-11-26 20:40:00,43.5,35.8,30.22,North,0,0.0,0.0,74,0.00,,---,0.00,0.00,VWS V14.00,2013-11-27 02:40:00,
2013-11-26 20:48:00,43.4,35.7,30.22,North,0,0.0,0.0,74,0.00,,---,0.00,0.00,VWS V14.00,2013-11-27 02:48:00,
2013-11-26 20:54:00,43.3,35.9,30.23,North,0,0.0,0.0,75,0.00,,---,0.00,0.00,VWS V14.00,2013-11-27 02:54:00,
2013-11-26 21:00:00,43.2,35.8,30.23,North,0,0.0,0.0,75,0.00,,---,0.00,0.00,VWS V14.00,2013-11-27 03:00:00,
2013-11-26 21:08:00,43.0,35.3,30.23,North,0,0.0,0.0,74,0.00,,---,0.00,0.00,VWS V14.00,2013-11-27 03:08:00,
2013-11-26 21:16:00,42.7,35.3,30.23,North,0,0.0,0.0,75,0.00,,---,0.00,0.00,VWS V14.00,2013-11-27 03:16:00,
2013-11-26 21:24:00,42.5,35.2,30.23,North,0,0.0,0.0,75,0.00,,---,0.00,0.00,VWS V14.00,2013-11-27 03:24:00,
2013-11-26 21:32:00,42.4,34.7,30.23,North,0,0.0,0.0,74,0.00,,---,0.00,0.00,VWS V14.00,2013-11-27 03:32:00,
2013-11-26 21:40:00,42.3,35.0,30.24,North,0,0.0,0.0,75,0.00,,---,0.00,0.00,VWS V14.00,2013-11-27 03:40:00,
2013-11-26 21:48:00,42.3,34.3,30.24,North,0,0.0,0.0,73,0.00,,---,0.00,0.00,VWS V14.00,2013-11-27 03:48:00,
2013-11-26 21:54:00,42.4,34.7,30.25,North,0,0.0,0.0,74,0.00,,---,0.00,0.00,VWS V14.00,2013-11-27 03:54:00,
2013-11-26 22:01:00,42.4,34.4,30.25,North,0,0.0,0.0,73,0.00,,---,0.00,0.00,VWS V14.00,2013-11-27 04:01:00,
2013-11-26 22:09:00,42.5,34.8,30.26,North,0,0.0,0.0,74,0.00,,---,0.00,0.00,VWS V14.00,2013-11-27 04:09:00,
2013-11-26 22:17:00,42.5,34.8,30.26,North,0,0.0,0.0,74,0.00,,---,0.00,0.00,VWS V14.00,2013-11-27 04:17:00,
2013-11-26 22:24:00,42.5,34.5,30.26,North,0,0.0,0.0,73,0.00,,---,0.00,0.00,VWS V14.00,2013-11-27 04:24:00,
2013-11-26 22:29:00,42.5,34.8,30.26,North,0,0.0,0.0,74,0.00,,---,0.00,0.00,VWS V14.00,2013-11-27 04:29:00,
2013-11-26 22:37:00,42.4,34.4,30.26,North,0,0.0,0.0,73,0.00,,---,0.00,0.00,VWS V14.00,2013-11-27 04:37:00,
2013-11-26 22:45:00,42.3,34.3,30.26,North,0,0.0,0.0,73,0.00,,---,0.00,0.00,VWS V14.00,2013-11-27 04:45:00,
2013-11-26 22:53:00,42.1,34.1,30.28,North,0,0.0,0.0,73,0.00,,---,0.00,0.00,VWS V14.00,2013-11-27 04:53:00,
2013-11-26 23:01:00,41.8,33.8,30.28,North,0,0.0,0.0,73,0.00,,---,0.00,0.00,VWS V14.00,2013-11-27 05:01:00,
2013-11-26 23:05:00,41.6,33.6,30.28,North,0,0.0,0.0,73,0.00,,---,0.00,0.00,VWS V14.00,2013-11-27 05:05:00,
2013-11-26 23:09:00,41.4,33.1,30.29,North,0,0.0,0.0,72,0.00,,---,0.00,0.00,VWS V14.00,2013-11-27 05:09:00,
2013-11-26 23:13:00,41.3,32.6,30.29,North,0,0.0,0.0,71,0.00,,---,0.00,0.00,VWS V14.00,2013-11-27 05:13:00,
2013-11-26 23:17:00,41.1,33.1,30.29,North,0,0.0,0.0,73,0.00,,---,0.00,0.00,VWS V14.00,2013-11-27 05:17:00,
2013-11-26 23:24:00,40.8,32.8,30.30,North,0,0.0,0.0,73,0.00,,---,0.00,0.00,VWS V14.00,2013-11-27 05:24:00,
2013-11-26 23:29:00,40.6,32.3,30.30,North,0,0.0,0.0,72,0.00,,---,0.00,0.00,VWS V14.00,2013-11-27 05:29:00,
2013-11-26 23:38:00,40.2,31.2,30.30,North,0,0.0,0.0,70,0.00,,---,0.00,0.00,VWS V14.00,2013-11-27 05:38:00,
2013-11-26 23:46:00,39.8,30.8,30.31,North,0,0.0,0.0,70,0.00,,---,0.00,0.00,VWS V14.00,2013-11-27 05:46:00,
2013-11-26 23:54:00,39.5,30.5,30.31,North,0,0.0,0.0,70,0.00,,---,0.00,0.00,VWS V14.00,2013-11-27 05:54:00,